Location: Martley
(52.2333°N, 2.3667°W)
Time: 18:35:16
(UTC+00:00)

Cosmos 1110 Rocket - Pass Details

Date: 11 December 2019
Orbit: 752 x 782 km, 74.0° (Epoch: 27 January)

Event Time Altitude Azimuth Distance (km) Brightness Sun altitude
Rises 06:52:11 0° 212° (SSW) 3,203 7.1 -10.8°
Reaches altitude 10° 06:54:34 10° 215° (SW) 2,279 6.4 -10.5°
Maximum altitude 06:59:42 68° 298° (WNW) 815 3.9 -9.7°
Drops below altitude 10° 07:04:53 10° 22° (NNE) 2,288 6.4 -9.0°
Sets 07:07:16 0° 25° (NNE) 3,217 7.2 -8.7°
